| time (UTC) | temp F | wind direction | speed MPH | gust MPH | rain 1hr in | rain 24hr in | rain mn in | humidity % | barometer mb |
| 20260508003055 | 45 | 280 | 0.0 | 1.0 | 0.00 | 0.00 | 0.00 | 67 | 1008.8 |
| 20260508001558 | 46 | 0 | 0.0 | 1.0 | 0.00 | 0.00 | 0.00 | 64 | 1008.3 |
| 20260508000053 | 48 | 0 | 0.0 | 1.0 | 0.00 | 0.00 | 0.00 | 56 | 1008.2 |
| 20260507234558 | 50 | 0 | 0.0 | 1.0 | 0.00 | 0.00 | 0.00 | 50 | 1008.1 |
| 20260507233059 | 52 | 314 | 0.0 | 2.0 | 0.00 | 0.00 | 0.00 | 46 | 1008.0 |
| 20260507231552 | 53 | 0 | 1.0 | 6.0 | 0.00 | 0.00 | 0.00 | 43 | 1007.9 |
| 20260507230109 | 53 | 295 | 5.0 | 9.0 | 0.00 | 0.00 | 0.00 | 39 | 1007.9 |
| 20260507224553 | 54 | 242 | 3.0 | 12.0 | 0.00 | 0.03 | 0.00 | 40 | 1007.7 |
| 20260507223055 | 55 | 46 | 5.0 | 10.0 | 0.00 | 0.03 | 0.00 | 38 | 1007.7 |
| 20260507221552 | 55 | 307 | 2.0 | 7.0 | 0.00 | 0.03 | 0.00 | 42 | 1007.7 |
| 20260507220056 | 54 | 326 | 4.0 | 18.0 | 0.00 | 0.03 | 0.00 | 40 | 1007.9 |
| 20260507214551 | 54 | 259 | 6.0 | 13.0 | 0.00 | 0.03 | 0.00 | 40 | 1007.9 |
| 20260507213052 | 54 | 287 | 9.0 | 19.0 | 0.00 | 0.03 | 0.00 | 41 | 1007.7 |
| 20260507211551 | 53 | 295 | 4.0 | 14.0 | 0.00 | 0.03 | 0.00 | 41 | 1007.8 |
| 20260507210104 | 54 | 339 | 10.0 | 21.0 | 0.00 | 0.03 | 0.00 | 40 | 1007.8 |
| 20260507204554 | 53 | 353 | 11.0 | 22.0 | 0.00 | 0.03 | 0.00 | 41 | 1007.8 |
| 20260507203115 | 54 | 208 | 5.0 | 14.0 | 0.00 | 0.03 | 0.00 | 40 | 1007.7 |
| 20260507201552 | 54 | 259 | 4.0 | 13.0 | 0.00 | 0.03 | 0.00 | 44 | 1007.8 |
| 20260507200054 | 53 | 291 | 9.0 | 15.0 | 0.00 | 0.03 | 0.00 | 42 | 1007.9 |
| 20260507194602 | 53 | 300 | 7.0 | 15.0 | 0.00 | 0.03 | 0.00 | 41 | 1007.9 |
| 20260507193055 | 54 | 317 | 7.0 | 15.0 | 0.00 | 0.03 | 0.00 | 42 | 1007.9 |
| 20260507191550 | 56 | 301 | 5.0 | 18.0 | 0.00 | 0.03 | 0.00 | 40 | 1008.2 |
| 20260507190057 | 54 | 257 | 3.0 | 16.0 | 0.00 | 0.03 | 0.00 | 42 | 1008.4 |
| 20260507184552 | 55 | 335 | 3.0 | 12.0 | 0.00 | 0.06 | 0.00 | 42 | 1008.6 |
| 20260507183052 | 55 | 316 | 3.0 | 12.0 | 0.00 | 0.06 | 0.00 | 42 | 1008.6 |
| 20260507181553 | 53 | 328 | 7.0 | 13.0 | 0.00 | 0.06 | 0.00 | 44 | 1008.8 |
| 20260507180053 | 53 | 25 | 3.0 | 15.0 | 0.00 | 0.06 | 0.00 | 41 | 1008.8 |
| 20260507174554 | 55 | 290 | 4.0 | 13.0 | 0.00 | 0.15 | 0.00 | 42 | 1009.0 |
| 20260507173124 | 54 | 274 | 6.0 | 17.0 | 0.00 | 0.15 | 0.00 | 41 | 1009.0 |
| 20260507171558 | 55 | 260 | 6.0 | 15.0 | 0.00 | 0.15 | 0.00 | 43 | 1008.9 |
| 20260507170052 | 55 | 295 | 7.0 | 17.0 | 0.00 | 0.15 | 0.00 | 38 | 1009.0 |
| 20260507164553 | 54 | 305 | 6.0 | 15.0 | 0.00 | 0.28 | 0.00 | 41 | 1009.2 |
| 20260507163051 | 53 | 212 | 7.0 | 13.0 | 0.00 | 0.28 | 0.00 | 40 | 1009.3 |
| 20260507161607 | 54 | 319 | 2.0 | 18.0 | 0.00 | 0.28 | 0.00 | 42 | 1009.3 |
| 20260507160058 | 52 | 231 | 6.0 | 15.0 | 0.00 | 0.28 | 0.00 | 43 | 1009.5 |
| 20260507154553 | 52 | 300 | 6.0 | 14.0 | 0.00 | 0.37 | 0.00 | 46 | 1009.9 |
| 20260507153059 | 52 | 312 | 5.0 | 15.0 | 0.00 | 0.37 | 0.00 | 43 | 1010.3 |
| 20260507151554 | 52 | 316 | 4.0 | 10.0 | 0.00 | 0.37 | 0.00 | 44 | 1010.1 |
| 20260507150052 | 51 | 294 | 4.0 | 11.0 | 0.00 | 0.37 | 0.00 | 48 | 1010.1 |
| 20260507144603 | 50 | 319 | 8.0 | 12.0 | 0.00 | 0.45 | 0.00 | 46 | 1010.3 |
| 20260507143101 | 50 | 307 | 5.0 | 13.0 | 0.00 | 0.45 | 0.00 | 47 | 1010.1 |
| 20260507141559 | 50 | 232 | 6.0 | 13.0 | 0.00 | 0.45 | 0.00 | 45 | 1010.3 |
| 20260507140056 | 49 | 300 | 3.0 | 10.0 | 0.00 | 0.45 | 0.00 | 47 | 1010.4 |
| 20260507134556 | 49 | 265 | 1.0 | 5.0 | 0.00 | 0.49 | 0.00 | 51 | 1010.6 |
| 20260507133139 | 48 | 325 | 3.0 | 6.0 | 0.00 | 0.49 | 0.00 | 51 | 1010.7 |
| 20260507131550 | 47 | 86 | 2.0 | 8.0 | 0.00 | 0.49 | 0.00 | 53 | 1010.7 |
| 20260507130104 | 46 | 346 | 3.0 | 8.0 | 0.00 | 0.49 | 0.00 | 55 | 1010.7 |
| 20260507124606 | 46 | 327 | 4.0 | 11.0 | 0.00 | 0.49 | 0.00 | 53 | 1010.6 |
| 20260507123056 | 46 | 299 | 3.0 | 8.0 | 0.00 | 0.49 | 0.00 | 50 | 1010.6 |
| 20260507121559 | 45 | 349 | 1.0 | 10.0 | 0.00 | 0.49 | 0.00 | 53 | 1010.6 |
| 20260507114610 | 45 | 309 | 3.0 | 9.0 | 0.00 | 0.49 | 0.00 | 54 | 1010.3 |
| 20260507113055 | 43 | 337 | 2.0 | 6.0 | 0.00 | 0.49 | 0.00 | 58 | 1010.3 |
| 20260507111558 | 43 | 0 | 1.0 | 11.0 | 0.00 | 0.49 | 0.00 | 60 | 1010.4 |
| 20260507110054 | 42 | 0 | 1.0 | 4.0 | 0.00 | 0.49 | 0.00 | 62 | 1010.1 |
| 20260507104604 | 43 | 37 | 1.0 | 6.0 | 0.00 | 0.49 | 0.00 | 64 | 1010.1 |
| 20260507103100 | 43 | 57 | 2.0 | 4.0 | 0.00 | 0.49 | 0.00 | 66 | 1010.0 |
| 20260507101603 | 44 | 108 | 2.0 | 15.0 | 0.00 | 0.49 | 0.00 | 67 | 1009.6 |
| 20260507100052 | 44 | 319 | 0.0 | 9.0 | 0.00 | 0.49 | 0.00 | 71 | 1009.5 |
| 20260507094558 | 45 | 299 | 2.0 | 11.0 | 0.00 | 0.49 | 0.00 | 72 | 1009.1 |
| 20260507093054 | 45 | 315 | 1.0 | 5.0 | 0.00 | 0.49 | 0.00 | 60 | 1009.1 |
| 20260507091553 | 45 | 0 | 0.0 | 3.0 | 0.00 | 0.49 | 0.00 | 54 | 1009.1 |
| 20260507084550 | 45 | 287 | 0.0 | 4.0 | 0.00 | 0.49 | 0.00 | 63 | 1009.4 |
| 20260507083056 | 45 | 320 | 2.0 | 4.0 | 0.00 | 0.49 | 0.00 | 65 | 1009.5 |
| 20260507081553 | 45 | 215 | 3.0 | 9.0 | 0.00 | 0.49 | 0.00 | 66 | 1009.5 |
| 20260507080059 | 46 | 304 | 0.0 | 2.0 | 0.00 | 0.49 | 0.00 | 67 | 1009.7 |
| 20260507074555 | 46 | 75 | 0.0 | 5.0 | 0.00 | 0.49 | 0.00 | 68 | 1009.6 |
| 20260507073104 | 46 | 0 | 0.0 | 6.0 | 0.00 | 0.49 | 0.00 | 61 | 1009.9 |
| 20260507071549 | 46 | 264 | 2.0 | 4.0 | 0.00 | 0.49 | 0.00 | 59 | 1009.4 |
| 20260507070101 | 46 | 323 | 1.0 | 4.0 | 0.00 | 0.49 | 0.00 | 47 | 1009.2 |
| 20260507064556 | 46 | 0 | 0.0 | 3.0 | 0.00 | 0.49 | 0.00 | 54 | 1008.6 |
| 20260507063054 | 46 | 235 | 1.0 | 4.0 | 0.00 | 0.49 | 0.00 | 51 | 1008.8 |
| 20260507061554 | 47 | 297 | 2.0 | 4.0 | 0.00 | 0.49 | 0.00 | 37 | 1008.6 |
| 20260507060059 | 47 | 245 | 1.0 | 2.0 | 0.00 | 0.49 | 0.00 | 26 | 1008.7 |
| 20260507054551 | 47 | 276 | 0.0 | 3.0 | 0.00 | 0.49 | 0.00 | 28 | 1008.8 |
| 20260507053058 | 47 | 236 | 1.0 | 4.0 | 0.00 | 0.49 | 0.00 | 35 | 1009.0 |
| 20260507051549 | 47 | 201 | 1.0 | 2.0 | 0.00 | 0.49 | 0.00 | 32 | 1009.0 |
| 20260507050054 | 48 | 261 | 1.0 | 4.0 | 0.00 | 0.49 | 0.00 | 33 | 1009.0 |
| 20260507044600 | 48 | 262 | 1.0 | 3.0 | 0.00 | 0.49 | 0.00 | 36 | 1009.5 |
| 20260507043051 | 48 | 276 | 1.0 | 4.0 | 0.00 | 0.49 | 0.00 | 30 | 1009.3 |
| 20260507041553 | 49 | 266 | 1.0 | 7.0 | 0.00 | 0.49 | 0.00 | 31 | 1009.3 |
| 20260507040056 | 49 | 283 | 2.0 | 5.0 | 0.00 | 0.49 | 0.00 | 43 | 1009.3 |
| 20260507034553 | 49 | 307 | 1.0 | 3.0 | 0.00 | 0.49 | 0.49 | 44 | 1009.0 |
| 20260507033102 | 49 | 228 | 1.0 | 4.0 | 0.00 | 0.49 | 0.49 | 51 | 1008.9 |
| 20260507031601 | 49 | 0 | 0.0 | 2.0 | 0.00 | 0.49 | 0.49 | 52 | 1008.9 |
| 20260507030108 | 49 | 231 | 0.0 | 5.0 | 0.00 | 0.49 | 0.49 | 54 | 1009.1 |
| 20260507024607 | 50 | 245 | 1.0 | 7.0 | 0.00 | 0.49 | 0.49 | 42 | 1009.1 |
| 20260507023052 | 50 | 0 | 0.0 | 3.0 | 0.00 | 0.49 | 0.49 | 47 | 1009.2 |
| 20260507021557 | 50 | 233 | 3.0 | 9.0 | 0.00 | 0.49 | 0.49 | 50 | 1009.0 |
| 20260507020104 | 50 | 248 | 2.0 | 8.0 | 0.00 | 0.49 | 0.49 | 46 | 1009.1 |
| 20260507014559 | 51 | 228 | 1.0 | 4.0 | 0.00 | 0.49 | 0.49 | 47 | 1009.2 |
| 20260507013100 | 51 | 231 | 0.0 | 7.0 | 0.00 | 0.49 | 0.49 | 51 | 1008.9 |
| 20260507011553 | 51 | 219 | 2.0 | 5.0 | 0.00 | 0.49 | 0.49 | 27 | 1008.7 |
| 20260507004556 | 52 | 300 | 1.0 | 6.0 | 0.00 | 0.49 | 0.49 | 25 | 1008.3 |